Home   Weather   Antioch   Past weeks

Flag for USA Past Weather in Antioch, California, USA — Yesterday and Last 2 Weeks

Now
55 °F

Clear.


Feels Like: 52 °F
Forecast: 51 / 70 °F
Wind: 9 mph from Southwest

Location: Buchanan Field

Current Time: Apr 23, 2017 at 5:12:01 am

Latest Report: Apr 23, 2017 at 3:53 am


Visibility: 10 mi

Pressure: 29.93 "Hg

Humidity: 69%

Dew Point: 45 °F

Location of AntiochLocation

Past Weather in Antioch — Graph

°F

Antioch Temperature Yesterday

Maximum temperature yesterday: 69 °F (at 1:53 pm)
Minimum temperature yesterday: 52 °F (at 5:53 am)
Average temperature yesterday: 60 °F

High & Low Weather Summary for the Past Weeks

 TemperatureHumidityPressure
High78 °F (Apr 21, 3:53 pm)100% (Apr 17, 2:17 am)30.29 "Hg (Apr 17, 2:17 am)
Low41 °F (Apr 9, 6:53 am)26% (Apr 9, 5:53 pm)29.84 "Hg (Apr 12, 6:53 pm)
Average57 °F72%30.05 "Hg
* Reported Apr 8 3:53 am — Apr 23 3:53 am, Antioch, Weather by CustomWeather, © 2017

Note: Actual official high and low records may vary slightly from our data, if they occured in-between our weather recording intervals... More about our weather records

Advertising

Antioch Weather History for the Previous 24 Hours

Scroll right to see more
 ConditionsComfort  
Time TempWeatherWind HumidityBarometerVisibility
3:53 am
Sun, Apr 23
55 °FClear.9 mph69%29.93 "Hg10 mi
2:53 am54 °FClear.8 mph72%29.92 "Hg10 mi
1:53 am54 °FClear.6 mph72%29.93 "Hg10 mi
12:53 am54 °FClear.6 mph69%29.94 "Hg10 mi
11:53 pm
Sat, Apr 22
55 °FClear.10 mph69%29.94 "Hg10 mi
10:53 pm55 °FClear.10 mph74%29.96 "Hg10 mi
9:53 pm57 °FClear.8 mph64%29.96 "Hg10 mi
8:53 pm60 °FClear.6 mph58%29.96 "Hg10 mi
7:53 pm62 °FClear.8 mph54%29.94 "Hg10 mi
6:53 pm64 °FSunny.7 mph54%29.94 "Hg10 mi
5:53 pm65 °FSunny.10 mph56%29.94 "Hg10 mi
4:53 pm67 °FSunny.15 mph51%29.95 "Hg10 mi
3:53 pm68 °FSunny.10 mph55%29.95 "Hg10 mi
2:53 pm69 °FPassing clouds.13 mph59%29.98 "Hg10 mi
1:53 pm69 °FMore clouds than sun.14 mph61%29.97 "Hg10 mi
12:53 pm67 °FScattered clouds.12 mph61%29.97 "Hg10 mi
11:53 am67 °FPartly sunny.7 mph59%29.98 "Hg10 mi
10:53 am65 °FPartly sunny.5 mph49%29.99 "Hg10 mi
9:53 am64 °FMore clouds than sun.7 mph33%29.99 "Hg10 mi
8:53 am61 °FBroken clouds.5 mph42%29.99 "Hg10 mi
7:53 am56 °FScattered clouds.5 mph58%29.99 "Hg10 mi
6:53 am52 °FScattered clouds.No wind66%29.98 "Hg10 mi
5:53 am52 °FClear.5 mph61%29.96 "Hg10 mi
Weather by CustomWeather, © 2017

See weather overviewHow to use our weather pages